When you browse on this site, cookies collect data to enhance your experience and personalize the content and advertising you see.
Visit our Privacy Policy to learn more. By continuing to use the site, you agree to this use of cookies and data.
  • In Hungary
  • List of Countries
  • For 7 days
  • Water Temperature
  • Weather Map
  • News
  • Weather Widgets
  • user-avatar
    Login

    Hourly Weather Dubivka

    Today, 21 August, Wednesday

    Time Temperature Precipitation Wind Pressure Humidity
    00:00 +21°C° 0 mm 2 mps 744 mmHg 56%
    01:00 +20°C° 0 mm 2 mps 744 mmHg 55%
    02:00 +21°C° 0 mm 1 mps 744 mmHg 56%
    03:00 +21°C° 0 mm 1 mps 744 mmHg 57%
    04:00 +20°C° 0 mm 1 mps 744 mmHg 57%
    05:00 +20°C° 0 mm 1 mps 744 mmHg 57%
    06:00 +22°C° 0 mm 1 mps 744 mmHg 56%
    07:00 +23°C° 0 mm 2 mps 744 mmHg 55%
    08:00 +25°C° 0 mm 2 mps 745 mmHg 54%
    09:00 +27°C° 0 mm 2 mps 745 mmHg 50%
    10:00 +28°C° 0 mm 2 mps 744 mmHg 45%
    11:00 +30°C° 0 mm 2 mps 744 mmHg 41%
    12:00 +30°C° 0 mm 1 mps 744 mmHg 38%
    13:00 +31°C° 0 mm 1 mps 744 mmHg 36%
    14:00 +32°C° 0 mm 1 mps 744 mmHg 34%
    15:00 +31°C° 0 mm 1 mps 743 mmHg 36%
    16:00 +31°C° 0 mm 1 mps 743 mmHg 37%
    17:00 +31°C° 0 mm 1 mps 743 mmHg 39%
    18:00 +29°C° 0 mm 1 mps 743 mmHg 45%
    19:00 +26°C° 0 mm 1 mps 743 mmHg 50%
    20:00 +24°C° 0 mm 1 mps 743 mmHg 56%
    21:00 +23°C° 0 mm 1 mps 743 mmHg 57%
    22:00 +23°C° 0 mm 1 mps 743 mmHg 59%
    23:00 +22°C° 0 mm 1 mps 743 mmHg 60%

    Tomorrow, 22 August, Thursday

    Time Temperature Precipitation Wind Pressure Humidity
    00:00 +22°C° 0 mm 1 mps 743 mmHg 62%
    01:00 +20°C° 0 mm 2 mps 743 mmHg 64%
    02:00 +20°C° 0 mm 2 mps 744 mmHg 66%
    03:00 +20°C° 0 mm 3 mps 744 mmHg 75%
    04:00 +20°C° 0 mm 4 mps 744 mmHg 84%
    05:00 +19°C° 0 mm 5 mps 744 mmHg 92%
    06:00 +19°C° 0 mm 5 mps 744 mmHg 90%
    07:00 +19°C° 0 mm 5 mps 744 mmHg 89%
    08:00 +19°C° 0 mm 5 mps 745 mmHg 87%
    09:00 +20°C° 0 mm 5 mps 745 mmHg 85%
    10:00 +20°C° 0 mm 5 mps 745 mmHg 83%
    11:00 +20°C° 0 mm 5 mps 745 mmHg 81%
    12:00 +20°C° 0 mm 5 mps 745 mmHg 79%
    13:00 +21°C° 0 mm 5 mps 745 mmHg 78%
    14:00 +21°C° 0 mm 5 mps 745 mmHg 76%
    15:00 +21°C° 0 mm 5 mps 745 mmHg 75%
    16:00 +21°C° 0 mm 5 mps 745 mmHg 75%
    17:00 +21°C° 0 mm 4 mps 745 mmHg 74%
    18:00 +20°C° 0 mm 4 mps 745 mmHg 77%
    19:00 +19°C° 0 mm 4 mps 746 mmHg 80%
    20:00 +19°C° 0 mm 3 mps 746 mmHg 83%
    21:00 +18°C° 0 mm 3 mps 746 mmHg 86%
    22:00 +17°C° 0 mm 3 mps 746 mmHg 89%
    23:00 +16°C° 0 mm 3 mps 746 mmHg 92%

    Day after tomorrow, 23 August, Friday

    Time Temperature Precipitation Wind Pressure Humidity
    00:00 +16°C° 0 mm 3 mps 746 mmHg 92%
    01:00 +16°C° 0 mm 3 mps 746 mmHg 93%
    02:00 +14°C° 0 mm 3 mps 746 mmHg 94%
    03:00 +14°C° 0 mm 3 mps 746 mmHg 95%
    04:00 +14°C° 0 mm 3 mps 746 mmHg 95%
    05:00 +13°C° 0 mm 3 mps 746 mmHg 96%
    06:00 +14°C° 0 mm 3 mps 746 mmHg 92%
    07:00 +16°C° 0 mm 3 mps 746 mmHg 89%
    08:00 +17°C° 0 mm 4 mps 746 mmHg 85%
    09:00 +18°C° 0 mm 4 mps 746 mmHg 82%
    10:00 +19°C° 0 mm 4 mps 746 mmHg 79%
    11:00 +20°C° 0 mm 4 mps 746 mmHg 76%
    12:00 +21°C° 0 mm 4 mps 746 mmHg 73%
    13:00 +22°C° 0 mm 4 mps 746 mmHg 70%
    14:00 +23°C° 0 mm 4 mps 746 mmHg 67%
    15:00 +23°C° 0 mm 4 mps 746 mmHg 67%
    16:00 +23°C° 0 mm 4 mps 746 mmHg 67%
    17:00 +23°C° 0 mm 4 mps 746 mmHg 67%
    18:00 +22°C° 0 mm 3 mps 746 mmHg 71%
    19:00 +20°C° 0 mm 3 mps 746 mmHg 74%
    20:00 +19°C° 0 mm 3 mps 746 mmHg 78%
    21:00 +18°C° 0 mm 3 mps 746 mmHg 78%
    22:00 +17°C° 0 mm 3 mps 746 mmHg 78%
    23:00 +17°C° 0 mm 3 mps 746 mmHg 79%

    24 August, Saturday

    Time Temperature Precipitation Wind Pressure Humidity
    00:00 +16°C° 0 mm 3 mps 746 mmHg 80%
    01:00 +16°C° 0 mm 3 mps 746 mmHg 82%
    02:00 +14°C° 0 mm 3 mps 746 mmHg 84%
    03:00 +14°C° 0 mm 3 mps 746 mmHg 86%
    04:00 +13°C° 0 mm 3 mps 746 mmHg 88%
    05:00 +13°C° 0 mm 3 mps 746 mmHg 90%
    06:00 +14°C° 0 mm 3 mps 746 mmHg 86%
    07:00 +17°C° 0 mm 3 mps 746 mmHg 81%
    08:00 +18°C° 0 mm 3 mps 746 mmHg 76%
    09:00 +20°C° 0 mm 3 mps 746 mmHg 73%
    10:00 +22°C° 0 mm 3 mps 746 mmHg 69%
    11:00 +25°C° 0 mm 3 mps 746 mmHg 65%
    12:00 +25°C° 0 mm 3 mps 746 mmHg 64%
    13:00 +26°C° 0 mm 3 mps 745 mmHg 63%
    14:00 +26°C° 0 mm 2 mps 745 mmHg 62%
    15:00 +26°C° 0 mm 2 mps 745 mmHg 63%
    16:00 +26°C° 0 mm 2 mps 745 mmHg 63%
    17:00 +26°C° 0 mm 2 mps 744 mmHg 64%
    18:00 +25°C° 0 mm 2 mps 744 mmHg 68%
    19:00 +23°C° 0 mm 2 mps 744 mmHg 72%
    20:00 +21°C° 0 mm 3 mps 744 mmHg 76%
    21:00 +20°C° 0 mm 3 mps 744 mmHg 77%
    22:00 +19°C° 0 mm 3 mps 744 mmHg 78%
    23:00 +19°C° 0 mm 3 mps 744 mmHg 79%

    25 August, Sunday

    Time Temperature Precipitation Wind Pressure Humidity
    00:00 +18°C° 0 mm 2 mps 744 mmHg 79%
    01:00 +18°C° 0 mm 2 mps 744 mmHg 79%
    02:00 +17°C° 0 mm 2 mps 744 mmHg 79%
    03:00 +18°C° 0 mm 2 mps 744 mmHg 79%
    04:00 +18°C° 0 mm 2 mps 744 mmHg 79%
    05:00 +18°C° 0 mm 2 mps 744 mmHg 78%
    06:00 +19°C° 0 mm 2 mps 744 mmHg 77%
    07:00 +19°C° 0 mm 3 mps 744 mmHg 76%
    08:00 +20°C° 0 mm 3 mps 744 mmHg 75%
    09:00 +21°C° 0 mm 3 mps 744 mmHg 70%
    10:00 +22°C° 0 mm 3 mps 744 mmHg 66%
    11:00 +24°C° 0 mm 3 mps 745 mmHg 62%
    12:00 +25°C° 0 mm 3 mps 744 mmHg 59%
    13:00 +26°C° 0 mm 3 mps 744 mmHg 56%
    14:00 +27°C° 0 mm 3 mps 744 mmHg 53%
    15:00 +27°C° 0 mm 3 mps 744 mmHg 53%
    16:00 +26°C° 0 mm 3 mps 744 mmHg 53%
    17:00 +26°C° 0 mm 3 mps 744 mmHg 53%
    18:00 +25°C° 0 mm 3 mps 744 mmHg 55%
    19:00 +22°C° 0 mm 3 mps 744 mmHg 58%
    20:00 +20°C° 0 mm 3 mps 744 mmHg 60%
    21:00 +19°C° 0 mm 3 mps 744 mmHg 61%
    22:00 +18°C° 0 mm 3 mps 744 mmHg 61%
    23:00 +17°C° 0 mm 3 mps 745 mmHg 62%

    26 August, Monday

    Time Temperature Precipitation Wind Pressure Humidity
    00:00 +17°C° 0 mm 3 mps 745 mmHg 62%
    01:00 +16°C° 0 mm 3 mps 745 mmHg 63%
    02:00 +14°C° 0 mm 3 mps 745 mmHg 64%
    03:00 +14°C° 0 mm 3 mps 745 mmHg 66%
    04:00 +15°C° 0 mm 2 mps 745 mmHg 69%
    05:00 +14°C° 0 mm 2 mps 745 mmHg 71%
    06:00 +16°C° 0 mm 3 mps 745 mmHg 69%
    07:00 +17°C° 0 mm 3 mps 745 mmHg 67%
    08:00 +19°C° 0 mm 3 mps 745 mmHg 64%
    09:00 +21°C° 0 mm 3 mps 745 mmHg 59%
    10:00 +22°C° 0 mm 3 mps 745 mmHg 53%
    11:00 +25°C° 0 mm 4 mps 745 mmHg 48%
    12:00 +26°C° 0 mm 3 mps 745 mmHg 46%
    13:00 +27°C° 0 mm 3 mps 745 mmHg 43%
    14:00 +28°C° 0 mm 3 mps 745 mmHg 41%
    15:00 +27°C° 0 mm 3 mps 744 mmHg 43%
    16:00 +27°C° 0 mm 3 mps 744 mmHg 46%
    17:00 +27°C° 0 mm 3 mps 744 mmHg 49%
    18:00 +25°C° 0 mm 3 mps 744 mmHg 52%
    19:00 +22°C° 0 mm 3 mps 743 mmHg 55%
    20:00 +20°C° 0 mm 3 mps 743 mmHg 58%
    21:00 +19°C° 0 mm 3 mps 743 mmHg 57%
    22:00 +19°C° 0 mm 3 mps 743 mmHg 56%
    23:00 +18°C° 0 mm 2 mps 743 mmHg 54%
    Show more